Radiation Dose at Monitoring Post of Fukushima Daini Nuclear Power Station
Date,Time,MP-1(microSv/h),MP-2(microSv/h),MP-3(microSv/h),MP-4(microSv/h),MP-5(microSv/h),MP-6(microSv/h),MP-7(microSv/h),Wind Direction,Wind Velocity(m/s),Rain
2023/01/31,00:00,0.155,0.141,0.217,0.212,0.211,0.123,0.078,west-northwest,6.2,No
2023/01/31,00:10,0.155,0.141,0.217,0.213,0.213,0.123,0.078,northwest,4.9,No
2023/01/31,00:20,0.156,0.141,0.215,0.212,0.212,0.124,0.078,west-northwest,3.0,No
2023/01/31,00:30,0.155,0.141,0.216,0.212,0.212,0.123,0.078,north,3.0,No
2023/01/31,00:40,0.154,0.140,0.216,0.213,0.211,0.124,0.078,north,2.8,No
2023/01/31,00:50,0.155,0.141,0.216,0.213,0.211,0.123,0.078,northwest,2.6,No
2023/01/31,01:00,0.156,0.140,0.216,0.212,0.212,0.124,0.079,northwest,1.9,No
2023/01/31,01:10,0.155,0.141,0.215,0.212,0.212,0.124,0.079,northwest,1.7,No
2023/01/31,01:20,0.155,0.140,0.215,0.212,0.211,0.123,0.078,north-northwest,1.3,No
2023/01/31,01:30,0.154,0.140,0.216,0.212,0.211,0.123,0.078,northwest,1.3,No
2023/01/31,01:40,0.154,0.140,0.216,0.213,0.212,0.123,0.078,west-northwest,1.9,No
2023/01/31,01:50,0.156,0.140,0.216,0.212,0.211,0.123,0.079,west-northwest,2.9,No
2023/01/31,02:00,0.155,0.141,0.216,0.211,0.211,0.123,0.078,west-northwest,3.1,No
2023/01/31,02:10,0.156,0.140,0.214,0.212,0.211,0.122,0.078,northwest,3.4,No
2023/01/31,02:20,0.156,0.140,0.216,0.213,0.211,0.123,0.078,west,1.8,No
2023/01/31,02:30,0.155,0.141,0.215,0.211,0.211,0.123,0.078,west-northwest,0.7,No
2023/01/31,02:40,0.155,0.140,0.215,0.211,0.211,0.123,0.078,north-northeast,1.4,No
2023/01/31,02:50,0.155,0.140,0.216,0.212,0.211,0.123,0.078,north,1.4,No
2023/01/31,03:00,0.155,0.139,0.216,0.211,0.211,0.123,0.077,northwest,1.7,No
2023/01/31,03:10,0.155,0.139,0.214,0.213,0.211,0.123,0.079,north-northwest,1.6,No
2023/01/31,03:20,0.155,0.140,0.215,0.212,0.211,0.123,0.077,north,2.4,No
2023/01/31,03:30,0.154,0.140,0.215,0.212,0.211,0.124,0.078,northwest,2.8,No
2023/01/31,03:40,0.154,0.140,0.216,0.213,0.211,0.123,0.078,north-northwest,2.6,No
2023/01/31,03:50,0.155,0.140,0.214,0.211,0.211,0.123,0.078,northwest,2.5,No
2023/01/31,04:00,0.154,0.141,0.214,0.212,0.212,0.122,0.078,northwest,2.9,No
2023/01/31,04:10,0.155,0.140,0.215,0.212,0.211,0.123,0.078,northwest,3.2,No
2023/01/31,04:20,0.155,0.140,0.215,0.211,0.212,0.122,0.078,northwest,2.8,No
2023/01/31,04:30,0.155,0.139,0.214,0.212,0.212,0.123,0.078,northwest,2.7,No
2023/01/31,04:40,0.156,0.140,0.215,0.211,0.211,0.122,0.078,west-northwest,2.5,No
2023/01/31,04:50,0.155,0.140,0.215,0.211,0.211,0.123,0.079,northwest,2.9,No
2023/01/31,05:00,0.155,0.140,0.216,0.211,0.210,0.123,0.078,west-northwest,3.7,No
2023/01/31,05:10,0.155,0.139,0.215,0.212,0.211,0.123,0.078,northwest,4.0,No
2023/01/31,05:20,0.155,0.139,0.216,0.212,0.212,0.122,0.078,west-northwest,3.6,No
2023/01/31,05:30,0.156,0.139,0.214,0.212,0.212,0.124,0.078,northwest,3.4,No
2023/01/31,05:40,0.155,0.139,0.215,0.211,0.210,0.122,0.078,west-northwest,2.8,No
2023/01/31,05:50,0.155,0.140,0.215,0.211,0.211,0.123,0.079,west-northwest,2.7,No
2023/01/31,06:00,0.155,0.139,0.216,0.212,0.210,0.123,0.078,west-northwest,1.9,No
2023/01/31,06:10,0.155,0.141,0.215,0.212,0.211,0.123,0.079,west-northwest,1.9,No
2023/01/31,06:20,0.155,0.140,0.215,0.213,0.212,0.122,0.078,west-northwest,3.0,No
2023/01/31,06:30,0.154,0.138,0.215,0.212,0.211,0.123,0.078,northwest,3.2,No
2023/01/31,06:40,0.155,0.139,0.215,0.211,0.211,0.123,0.079,west-northwest,2.8,No
2023/01/31,06:50,0.154,0.140,0.214,0.212,0.212,0.123,0.079,west-northwest,2.9,No
2023/01/31,07:00,0.155,0.140,0.215,0.212,0.211,0.123,0.079,northwest,2.2,No
2023/01/31,07:10,0.154,0.140,0.215,0.211,0.210,0.123,0.079,north-northwest,2.0,No
2023/01/31,07:20,0.155,0.140,0.215,0.211,0.210,0.123,0.078,northwest,3.7,No
2023/01/31,07:30,0.155,0.140,0.216,0.211,0.210,0.123,0.078,northwest,3.3,No
2023/01/31,07:40,0.155,0.141,0.216,0.212,0.212,0.123,0.078,northwest,3.5,No
2023/01/31,07:50,0.155,0.140,0.214,0.212,0.212,0.123,0.078,northwest,3.3,No
2023/01/31,08:00,0.155,0.140,0.215,0.211,0.211,0.123,0.078,northwest,3.1,No
2023/01/31,08:10,0.156,0.139,0.216,0.210,0.211,0.123,0.078,northwest,3.1,No
2023/01/31,08:20,0.156,0.139,0.216,0.211,0.211,0.123,0.078,northwest,2.7,No
2023/01/31,08:30,0.155,0.140,0.215,0.212,0.211,0.123,0.078,northwest,3.3,No
2023/01/31,08:40,0.155,0.140,0.216,0.211,0.211,0.122,0.078,northwest,3.7,No
2023/01/31,08:50,0.154,0.139,0.215,0.212,0.212,0.123,0.078,northwest,2.9,No
2023/01/31,09:00,0.155,0.140,0.216,0.212,0.211,0.122,0.078,west-northwest,2.0,No
2023/01/31,09:10,0.155,0.141,0.215,0.211,0.211,0.124,0.078,north-northwest,1.1,No
2023/01/31,09:20,0.156,0.140,0.214,0.211,0.212,0.123,0.078,north-northwest,1.9,No
2023/01/31,09:30,0.155,0.140,0.214,0.211,0.212,0.123,0.077,north-northeast,1.9,No
2023/01/31,09:40,0.154,0.139,0.214,0.211,0.212,0.123,0.077,north-northeast,1.5,No
2023/01/31,09:50,0.155,0.139,0.216,0.212,0.210,0.122,0.078,northeast,1.7,No
2023/01/31,10:00,0.154,0.141,0.214,0.211,0.210,0.122,0.079,north-northwest,3.1,Yes
2023/01/31,10:10,0.155,0.140,0.215,0.212,0.211,0.122,0.078,north-northwest,3.7,Yes
2023/01/31,10:20,0.154,0.139,0.215,0.212,0.211,0.122,0.079,northwest,3.2,Yes
2023/01/31,10:30,0.154,0.140,0.214,0.210,0.211,0.123,0.078,northwest,3.3,Yes
2023/01/31,10:40,0.155,0.141,0.215,0.211,0.211,0.123,0.078,northwest,2.7,No
2023/01/31,10:50,0.154,0.140,0.215,0.212,0.213,0.123,0.078,north-northwest,3.2,No
2023/01/31,11:00,0.154,0.141,0.214,0.212,0.212,0.123,0.078,north-northwest,3.7,No
2023/01/31,11:10,0.155,0.141,0.214,0.212,0.213,0.124,0.078,northwest,2.6,No
2023/01/31,11:20,0.155,0.140,0.214,0.212,0.212,0.123,0.078,north-northwest,3.4,No
2023/01/31,11:30,0.155,0.140,0.215,0.212,0.211,0.123,0.079,north-northwest,3.3,No
2023/01/31,11:40,0.155,0.140,0.214,0.211,0.211,0.124,0.078,northwest,3.8,No
2023/01/31,11:50,0.155,0.141,0.214,0.212,0.212,0.124,0.078,north-northwest,4.1,No
2023/01/31,12:00,0.156,0.140,0.216,0.212,0.211,0.124,0.078,north-northwest,3.4,No
2023/01/31,12:10,0.155,0.139,0.215,0.212,0.212,0.124,0.078,northwest,4.0,No
2023/01/31,12:20,0.156,0.140,0.214,0.211,0.213,0.124,0.078,north-northwest,3.7,No
2023/01/31,12:30,0.155,0.140,0.215,0.212,0.213,0.124,0.078,north-northwest,3.0,No
2023/01/31,12:40,0.154,0.139,0.215,0.212,0.212,0.123,0.079,north-northwest,5.5,No
2023/01/31,12:50,0.155,0.141,0.216,0.212,0.212,0.124,0.078,northwest,5.8,No
2023/01/31,13:00,0.156,0.140,0.215,0.213,0.212,0.123,0.079,northwest,6.0,No
2023/01/31,13:10,0.155,0.140,0.215,0.212,0.212,0.124,0.078,north-northwest,6.5,No
2023/01/31,13:20,0.156,0.140,0.214,0.212,0.212,0.124,0.078,north-northwest,6.0,No
2023/01/31,13:30,0.155,0.140,0.217,0.212,0.213,0.124,0.078,northwest,6.0,No
2023/01/31,13:40,0.155,0.140,0.216,0.212,0.212,0.124,0.077,northwest,7.3,No
2023/01/31,13:50,0.155,0.141,0.216,0.213,0.213,0.124,0.078,northwest,6.4,No
2023/01/31,14:00,0.155,0.140,0.216,0.212,0.212,0.123,0.078,northwest,5.4,No
2023/01/31,14:10,0.155,0.141,0.217,0.213,0.212,0.123,0.078,north-northwest,6.1,No
2023/01/31,14:20,0.155,0.140,0.217,0.213,0.213,0.123,0.079,north-northwest,5.9,No
2023/01/31,14:30,0.155,0.140,0.216,0.212,0.212,0.124,0.079,north-northwest,5.4,No
2023/01/31,14:40,0.155,0.140,0.216,0.212,0.211,0.123,0.078,north-northwest,6.4,No
2023/01/31,14:50,0.155,0.141,0.216,0.212,0.212,0.123,0.078,north-northwest,4.1,No
2023/01/31,15:00,0.155,0.140,0.216,0.213,0.213,0.123,0.078,north-northwest,4.9,No
2023/01/31,15:10,0.155,0.142,0.216,0.213,0.212,0.123,0.078,northwest,4.5,No
2023/01/31,15:20,0.155,0.141,0.216,0.213,0.212,0.123,0.077,west-northwest,8.1,No
2023/01/31,15:30,0.156,0.141,0.216,0.212,0.212,0.123,0.078,west-northwest,7.3,No
2023/01/31,15:40,0.154,0.140,0.215,0.212,0.211,0.123,0.078,west-northwest,7.6,No
2023/01/31,15:50,0.155,0.141,0.216,0.212,0.213,0.123,0.078,west,6.6,No
2023/01/31,16:00,0.155,0.140,0.216,0.212,0.212,0.124,0.078,west-northwest,4.5,No
2023/01/31,16:10,0.155,0.140,0.216,0.213,0.212,0.123,0.078,west-northwest,5.3,No
2023/01/31,16:20,0.155,0.140,0.216,0.213,0.212,0.124,0.077,northwest,5.1,No
2023/01/31,16:30,0.155,0.141,0.215,0.212,0.212,0.123,0.079,west-northwest,3.8,No
2023/01/31,16:40,0.155,0.140,0.216,0.213,0.211,0.123,0.079,west-northwest,4.8,No
2023/01/31,16:50,0.155,0.140,0.216,0.212,0.213,0.123,0.078,west-northwest,6.5,No
2023/01/31,17:00,0.155,0.140,0.216,0.212,0.212,0.123,0.079,northwest,5.2,No
2023/01/31,17:10,0.154,0.140,0.215,0.213,0.212,0.123,0.078,northwest,4.9,No
2023/01/31,17:20,0.156,0.140,0.216,0.213,0.212,0.123,0.078,northwest,4.8,No
2023/01/31,17:30,0.155,0.140,0.216,0.212,0.212,0.124,0.078,northwest,5.2,No
2023/01/31,17:40,0.155,0.141,0.215,0.213,0.212,0.123,0.078,northwest,4.5,No
2023/01/31,17:50,0.155,0.140,0.216,0.213,0.211,0.123,0.078,northwest,3.4,No
2023/01/31,18:00,0.155,0.141,0.216,0.213,0.212,0.123,0.078,west-northwest,4.1,No
2023/01/31,18:10,0.155,0.140,0.217,0.213,0.212,0.124,0.079,west-northwest,3.3,No
2023/01/31,18:20,0.156,0.140,0.216,0.212,0.212,0.123,0.078,west-northwest,2.8,No
2023/01/31,18:30,0.155,0.141,0.216,0.212,0.211,0.124,0.078,northwest,3.0,No
2023/01/31,18:40,0.155,0.141,0.215,0.212,0.211,0.123,0.078,north-northwest,2.1,No
2023/01/31,18:50,0.155,0.140,0.216,0.212,0.212,0.124,0.078,north-northwest,2.0,No
2023/01/31,19:00,0.155,0.140,0.215,0.212,0.213,0.123,0.078,northwest,1.7,No
2023/01/31,19:10,0.156,0.140,0.216,0.213,0.213,0.124,0.078,north-northwest,1.6,No
2023/01/31,19:20,0.155,0.140,0.216,0.212,0.212,0.123,0.079,north-northwest,1.0,No
2023/01/31,19:30,0.154,0.139,0.216,0.212,0.213,0.123,0.079,northwest,1.2,No
2023/01/31,19:40,0.156,0.141,0.216,0.213,0.212,0.124,0.078,west,2.3,No
2023/01/31,19:50,0.155,0.140,0.217,0.212,0.212,0.123,0.078,west-northwest,2.8,No
2023/01/31,20:00,0.156,0.140,0.216,0.212,0.213,0.123,0.078,northwest,1.9,No
2023/01/31,20:10,0.155,0.141,0.215,0.213,0.212,0.124,0.078,northwest,2.0,No
2023/01/31,20:20,0.155,0.140,0.216,0.213,0.212,0.124,0.077,northwest,2.0,No
2023/01/31,20:30,0.154,0.139,0.215,0.213,0.213,0.123,0.079,west-northwest,2.7,No
2023/01/31,20:40,0.155,0.140,0.216,0.212,0.212,0.124,0.079,west-northwest,2.4,No
2023/01/31,20:50,0.155,0.140,0.216,0.214,0.212,0.123,0.078,west-northwest,3.2,No
2023/01/31,21:00,0.156,0.140,0.216,0.213,0.211,0.124,0.078,west-northwest,2.9,No
2023/01/31,21:10,0.155,0.140,0.216,0.214,0.212,0.122,0.078,west-northwest,3.0,No
2023/01/31,21:20,0.154,0.140,0.216,0.212,0.211,0.123,0.079,west-northwest,1.8,No
2023/01/31,21:30,0.155,0.140,0.216,0.212,0.212,0.123,0.079,west-northwest,1.6,No
2023/01/31,21:40,0.155,0.141,0.216,0.213,0.212,0.124,0.078,west-northwest,1.2,No
2023/01/31,21:50,0.155,0.141,0.216,0.213,0.212,0.123,0.078,west-northwest,1.5,No
2023/01/31,22:00,0.155,0.141,0.216,0.214,0.212,0.124,0.078,northwest,1.3,No
2023/01/31,22:10,0.155,0.140,0.216,0.213,0.213,0.123,0.078,north-northwest,0.9,No
2023/01/31,22:20,0.155,0.140,0.216,0.214,0.213,0.122,0.079,north-northwest,0.7,No
2023/01/31,22:30,0.156,0.141,0.216,0.213,0.212,0.123,0.078,west-northwest,0.7,No
2023/01/31,22:40,0.155,0.141,0.215,0.213,0.212,0.124,0.078,-,CALM,No
2023/01/31,22:50,0.155,0.141,0.217,0.213,0.212,0.124,0.078,west-northwest,0.8,No
2023/01/31,23:00,0.155,0.141,0.217,0.214,0.213,0.123,0.078,-,CALM,No
2023/01/31,23:10,0.156,0.141,0.216,0.214,0.212,0.122,0.079,-,CALM,No
2023/01/31,23:20,0.155,0.141,0.216,0.212,0.212,0.123,0.078,south,1.1,No
2023/01/31,23:30,0.155,0.141,0.217,0.213,0.213,0.123,0.079,south-southeast,0.9,No
2023/01/31,23:40,0.155,0.140,0.215,0.213,0.212,0.124,0.079,-,CALM,No
2023/01/31,23:50,0.155,0.140,0.216,0.213,0.213,0.123,0.079,-,CALM,No
